Find Starlink 31210

NORAD ID: 59033 Int'l Des: 2024-038 Owner: SPXS Country: US Constellation: starlink operational
LEOCIRCULAR

当前视图

正在加载3D地球...

关于 Starlink 31210

正在加载描述...

即将过境

Passes for default location (London). Set your location on the main map for personalized predictions.

高度历史

Loading altitude history...

两行轨道根数

1 59033U 24038L 26145.49475090 .00001683 00000-0 70674-4 0 9999
2 59033 43.0017 309.8919 0001153 271.5303 88.5417 15.27571355126606
Epoch: May 25, 2026 • Age: 8 hours

当前状态

高度 486.1 km
速度 7.63 km/s
星下点 39.25°N, 119.25°W
发射日期 Feb 25, 2024
运行时间 2.2 years
类型 internet

技术详情

分类 Payload
质量 730.00 kg
干质量 700.00 kg
总质量 730.00 kg
长度 0.30 m
直径 4.10 m
跨度 29.00 m
形状 Box + pan
制造商 SPXS
平台类型 Starlink V2M
阶段状态 In Orbit
所有者/国家 SPXS/US

Most Searched